Location: Basse Occidentale du Courleau
(48.3833°N, 4.8333°W)
Time: 03:10:07
(UTC+00:00)

ATLAS 5 CENTAUR R/B - Pass Details

Date: 05 July 2020
Orbit: 534 x 1124 km, 63.4° (Epoch: 06 August)

Event Time Altitude Azimuth Distance (km) Brightness Sun altitude
Rises 22:48:46 0° 253° (WSW) 2,756 5.0 -15.8°
Reaches altitude 10° 22:51:05 10° 265° (W) 1,915 4.3 -16.0°
Maximum altitude 22:54:54 31° 328° (NNW) 1,134 3.7 -16.2°
Drops below altitude 10° 22:59:14 10° 30° (NNE) 2,180 4.9 -16.5°
Sets 23:02:02 0° 41° (NE) 3,212 5.6 -16.6°
